• In Hungary
  • List of Countries
  • For 7 days
  • Water Temperature
  • Satellite Maps
  • Weather Map
  • News
  • Weather Widgets
  • user-avatar
    Login

    Hourly Weather Skolkovo

    Today, 26 September, Wednesday

    Time Temperature Precipitation Wind Pressure Humidity
    00:00 +16°C° 0 mm 5 mps 752 mmHg 45%
    01:00 +15°C° 0.1 mm 5 mps 752 mmHg 52%
    02:00 +15°C° 0.1 mm 4 mps 753 mmHg 60%
    03:00 +14°C° 0 mm 3 mps 753 mmHg 62%
    04:00 +14°C° 0.1 mm 3 mps 753 mmHg 68%
    05:00 +13°C° 0.1 mm 3 mps 753 mmHg 73%
    06:00 +12°C° 0.1 mm 3 mps 754 mmHg 79%
    07:00 +12°C° 0.5 mm 3 mps 754 mmHg 78%
    08:00 +12°C° 0.5 mm 3 mps 755 mmHg 77%
    09:00 +12°C° 0.5 mm 3 mps 755 mmHg 76%
    10:00 +13°C° 0.2 mm 3 mps 756 mmHg 69%
    11:00 +13°C° 0.2 mm 3 mps 756 mmHg 63%
    12:00 +14°C° 0.2 mm 3 mps 756 mmHg 57%
    13:00 +14°C° 0 mm 3 mps 757 mmHg 57%
    14:00 +14°C° 0 mm 3 mps 757 mmHg 57%
    15:00 +14°C° 0 mm 3 mps 757 mmHg 58%
    16:00 +13°C° 0 mm 3 mps 757 mmHg 61%
    17:00 +12°C° 0 mm 3 mps 758 mmHg 64%
    18:00 +11°C° 0 mm 3 mps 758 mmHg 67%
    19:00 +11°C° 0 mm 3 mps 758 mmHg 69%
    20:00 +10°C° 0 mm 2 mps 758 mmHg 71%
    21:00 +9°C° 0 mm 2 mps 758 mmHg 74%
    22:00 +9°C° 0 mm 2 mps 758 mmHg 76%
    23:00 +8°C° 0 mm 2 mps 758 mmHg 78%

    Tomorrow, 27 September, Thursday

    Time Temperature Precipitation Wind Pressure Humidity
    00:00 +7°C° 0 mm 2 mps 758 mmHg 81%
    01:00 +7°C° 0 mm 2 mps 758 mmHg 82%
    02:00 +6°C° 0 mm 2 mps 758 mmHg 83%
    03:00 +6°C° 0 mm 2 mps 758 mmHg 84%
    04:00 +6°C° 0 mm 2 mps 758 mmHg 84%
    05:00 +4°C° 0 mm 3 mps 758 mmHg 84%
    06:00 +4°C° 0 mm 3 mps 757 mmHg 84%
    07:00 +6°C° 0 mm 4 mps 757 mmHg 76%
    08:00 +7°C° 0 mm 5 mps 757 mmHg 67%
    09:00 +9°C° 0 mm 6 mps 756 mmHg 59%
    10:00 +10°C° 0 mm 7 mps 756 mmHg 54%
    11:00 +11°C° 0 mm 7 mps 755 mmHg 49%
    12:00 +12°C° 0 mm 8 mps 754 mmHg 44%
    13:00 +12°C° 0 mm 8 mps 754 mmHg 43%
    14:00 +11°C° 0 mm 8 mps 753 mmHg 43%
    15:00 +11°C° 0 mm 8 mps 753 mmHg 43%
    16:00 +10°C° 0.2 mm 8 mps 752 mmHg 48%
    17:00 +9°C° 0.2 mm 7 mps 751 mmHg 53%
    18:00 +8°C° 0.2 mm 7 mps 751 mmHg 59%
    19:00 +8°C° 0.4 mm 7 mps 750 mmHg 63%
    20:00 +6°C° 0.4 mm 8 mps 750 mmHg 67%
    21:00 +5°C° 0.4 mm 8 mps 749 mmHg 71%
    22:00 +5°C° 0.1 mm 8 mps 749 mmHg 74%
    23:00 +5°C° 0.1 mm 7 mps 749 mmHg 77%

    Day after tomorrow, 28 September, Friday

    Time Temperature Precipitation Wind Pressure Humidity
    00:00 +5°C° 0.1 mm 7 mps 749 mmHg 80%
    01:00 +5°C° 0 mm 7 mps 749 mmHg 81%
    02:00 +5°C° 0 mm 6 mps 750 mmHg 83%
    03:00 +5°C° 0 mm 6 mps 750 mmHg 84%
    04:00 +5°C° 0 mm 6 mps 750 mmHg 85%
    05:00 +5°C° 0 mm 5 mps 751 mmHg 86%
    06:00 +5°C° 0 mm 5 mps 751 mmHg 87%
    07:00 +5°C° 0 mm 6 mps 751 mmHg 81%
    08:00 +8°C° 0 mm 6 mps 752 mmHg 74%
    09:00 +9°C° 0 mm 7 mps 752 mmHg 67%
    10:00 +10°C° 0 mm 7 mps 752 mmHg 62%
    11:00 +11°C° 0 mm 7 mps 752 mmHg 56%
    12:00 +12°C° 0 mm 7 mps 752 mmHg 50%
    13:00 +14°C° 0 mm 7 mps 752 mmHg 49%
    14:00 +14°C° 0 mm 7 mps 752 mmHg 48%
    15:00 +14°C° 0 mm 7 mps 751 mmHg 47%
    16:00 +14°C° 0 mm 7 mps 751 mmHg 50%
    17:00 +12°C° 0 mm 7 mps 751 mmHg 54%
    18:00 +11°C° 0 mm 6 mps 750 mmHg 57%
    19:00 +11°C° 0 mm 7 mps 750 mmHg 59%
    20:00 +11°C° 0 mm 7 mps 750 mmHg 60%
    21:00 +11°C° 0 mm 7 mps 750 mmHg 62%
    22:00 +11°C° 0 mm 8 mps 750 mmHg 63%
    23:00 +11°C° 0 mm 8 mps 749 mmHg 65%

    29 September, Saturday

    Time Temperature Precipitation Wind Pressure Humidity
    00:00 +11°C° 0 mm 8 mps 749 mmHg 66%
    01:00 +11°C° 0 mm 8 mps 749 mmHg 67%
    02:00 +11°C° 0 mm 8 mps 749 mmHg 68%
    03:00 +11°C° 0 mm 8 mps 749 mmHg 69%
    04:00 +11°C° 0 mm 7 mps 750 mmHg 71%
    05:00 +11°C° 0 mm 7 mps 751 mmHg 73%
    06:00 +11°C° 0 mm 6 mps 751 mmHg 75%
    07:00 +11°C° 0 mm 6 mps 752 mmHg 71%
    08:00 +12°C° 0 mm 5 mps 752 mmHg 66%
    09:00 +12°C° 0 mm 5 mps 753 mmHg 62%
    10:00 +13°C° 0 mm 4 mps 754 mmHg 56%
    11:00 +13°C° 0 mm 4 mps 754 mmHg 50%
    12:00 +14°C° 0 mm 4 mps 754 mmHg 44%
    13:00 +14°C° 0 mm 4 mps 755 mmHg 42%
    14:00 +14°C° 0 mm 4 mps 755 mmHg 41%
    15:00 +14°C° 0 mm 3 mps 755 mmHg 40%
    16:00 +12°C° 0 mm 3 mps 755 mmHg 45%
    17:00 +12°C° 0 mm 2 mps 756 mmHg 49%
    18:00 +9°C° 0 mm 2 mps 756 mmHg 54%
    19:00 +9°C° 0 mm 2 mps 757 mmHg 56%
    20:00 +8°C° 0 mm 2 mps 757 mmHg 58%
    21:00 +8°C° 0 mm 2 mps 757 mmHg 60%
    22:00 +7°C° 0 mm 2 mps 757 mmHg 61%
    23:00 +7°C° 0 mm 2 mps 757 mmHg 62%

    30 September, Sunday

    Time Temperature Precipitation Wind Pressure Humidity
    00:00 +6°C° 0 mm 2 mps 758 mmHg 63%
    01:00 +6°C° 0.2 mm 2 mps 758 mmHg 63%
    02:00 +6°C° 0.2 mm 2 mps 758 mmHg 62%
    03:00 +7°C° 0.2 mm 2 mps 758 mmHg 62%
    04:00 +7°C° 0.3 mm 1 mps 758 mmHg 64%
    05:00 +7°C° 0.3 mm 1 mps 758 mmHg 67%
    06:00 +7°C° 0.3 mm 1 mps 758 mmHg 69%
    07:00 +7°C° 0.1 mm 1 mps 758 mmHg 68%
    08:00 +7°C° 0.1 mm 1 mps 759 mmHg 67%
    09:00 +7°C° 0.1 mm 1 mps 759 mmHg 66%
    10:00 +7°C° 0 mm 2 mps 759 mmHg 61%
    11:00 +8°C° 0 mm 2 mps 759 mmHg 57%
    12:00 +8°C° 0 mm 3 mps 759 mmHg 53%
    13:00 +8°C° 0 mm 3 mps 759 mmHg 51%
    14:00 +9°C° 0 mm 3 mps 759 mmHg 50%
    15:00 +9°C° 0 mm 3 mps 758 mmHg 49%
    16:00 +8°C° 0 mm 3 mps 758 mmHg 53%
    17:00 +7°C° 0 mm 3 mps 759 mmHg 57%
    18:00 +5°C° 0 mm 3 mps 759 mmHg 62%
    19:00 +4°C° 0 mm 3 mps 759 mmHg 64%
    20:00 +4°C° 0 mm 3 mps 759 mmHg 67%
    21:00 +3°C° 0 mm 3 mps 759 mmHg 70%
    22:00 +3°C° 0 mm 3 mps 759 mmHg 71%
    23:00 +2°C° 0 mm 3 mps 759 mmHg 73%

    1 October, Monday

    Time Temperature Precipitation Wind Pressure Humidity
    00:00 +2°C° 0 mm 3 mps 759 mmHg 75%
    01:00 +2°C° 0 mm 3 mps 760 mmHg 75%
    02:00 +1°C° 0 mm 3 mps 760 mmHg 75%
    03:00 +1°C° 0 mm 3 mps 760 mmHg 75%
    04:00 +1°C° 0 mm 3 mps 760 mmHg 75%
    05:00 +1°C° 0 mm 2 mps 760 mmHg 76%
    06:00 +1°C° 0 mm 2 mps 761 mmHg 76%
    07:00 +3°C° 0 mm 2 mps 761 mmHg 68%
    08:00 +4°C° 0 mm 3 mps 761 mmHg 61%
    09:00 +5°C° 0 mm 3 mps 761 mmHg 53%
    10:00 +7°C° 0 mm 3 mps 761 mmHg 49%
    11:00 +9°C° 0 mm 3 mps 761 mmHg 45%
    12:00 +10°C° 0 mm 4 mps 761 mmHg 41%
    13:00 +10°C° 0 mm 4 mps 761 mmHg 43%
    14:00 +10°C° 0 mm 4 mps 761 mmHg 44%
    15:00 +11°C° 0 mm 4 mps 761 mmHg 46%
    16:00 +10°C° 0 mm 3 mps 761 mmHg 51%
    17:00 +8°C° 0 mm 3 mps 761 mmHg 56%
    18:00 +7°C° 0 mm 2 mps 761 mmHg 61%
    19:00 +7°C° 0 mm 2 mps 761 mmHg 63%
    20:00 +6°C° 0 mm 2 mps 761 mmHg 64%
    21:00 +5°C° 0 mm 3 mps 761 mmHg 66%
    22:00 +5°C° 0 mm 3 mps 762 mmHg 67%
    23:00 +5°C° 0 mm 3 mps 762 mmHg 68%
    Show more